CT1EDG-13 Weather Reports


Display with metric or nautical units.
time (UTC)temp
F
wind
direction
speed
MPH
gust
MPH
rain 1hr
in
rain 24hr
in
rain mn
in
humidity
%
barometer
mb
20260508132316 117 209 3.0 6.0 0.00 0.00 0.00 25 999.3
20260508131316 117 187 4.0 5.0 0.00 0.00 0.00 25 999.2
20260508130316 117 165 4.0 7.0 0.00 0.00 0.00 25 999.2
20260508125316 117 187 5.0 7.0 0.00 0.00 0.00 25 999.3
20260508124316 117 202 3.0 4.0 0.00 0.00 0.00 25 999.3
20260508123314 117 170 2.0 5.0 0.00 0.00 0.00 25 999.5
20260508122314 117 194 3.0 4.0 0.00 0.00 0.00 25 999.6
20260508121312 117 167 3.0 7.0 0.00 0.00 0.00 25 999.7
20260508120312 117 150 2.0 3.0 0.00 0.00 0.00 25 999.8
20260508115312 117 225 7.0 3.0 0.00 0.00 0.00 25 1000.0
20260508114312 117 193 2.0 4.0 0.00 0.00 0.00 25 1000.1
20260508113311 117 140 1.0 2.0 0.00 0.00 0.00 25 1000.1
20260508112311 117 209 3.0 9.0 0.00 0.00 0.00 25 1000.2
20260508111311 117 181 4.0 9.0 0.00 0.00 0.00 25 1000.1
20260508110311 117 127 3.0 4.0 0.00 0.00 0.00 25 1000.1
20260508105311 117 186 3.0 4.0 0.00 0.00 0.00 25 1000.1
20260508104311 117 118 3.0 9.0 0.00 0.00 0.00 25 1000.2
20260508103311 117 180 3.0 4.0 0.00 0.00 0.00 25 1000.3
20260508102310 117 196 1.0 4.0 0.00 0.00 0.00 25 1000.4
20260508101310 117 147 2.0 4.0 0.00 0.00 0.00 25 1000.3
20260508100310 117 254 2.0 7.0 0.00 0.00 0.00 25 1000.4
20260508095310 117 209 1.0 3.0 0.00 0.00 0.00 25 1000.4
20260508094310 117 94 1.0 4.0 0.00 0.00 0.00 25 1000.3
20260508093310 117 197 2.0 3.0 0.00 0.00 0.00 25 1000.3
20260508092313 117 135 2.0 3.0 0.00 0.00 0.00 25 1000.4
20260508091308 117 180 1.0 1.0 0.00 0.00 0.00 25 1000.4
20260508090307 117 145 0.0 1.0 0.00 0.00 0.00 25 1000.4
20260508085307 117 157 3.0 3.0 0.00 0.00 0.00 25 1000.5
20260508084307 117 161 0.0 0.0 0.00 0.00 0.00 25 1000.4
20260508083306 117 149 1.0 1.0 0.00 0.00 0.00 25 1000.5
20260508082306 117 139 1.0 1.0 0.00 0.00 0.00 25 1000.5
20260508081305 117 242 3.0 5.0 0.00 0.00 0.00 25 1000.4
20260508080305 117 154 1.0 2.0 0.00 0.00 0.00 25 1000.4
20260508075308 117 172 1.0 3.0 0.00 0.00 0.00 25 1000.4
20260508074305 117 180 0.0 2.0 0.00 0.00 0.00 25 1000.4
20260508073305 117 144 0.0 0.0 0.00 0.00 0.00 25 1000.4
20260508072307 117 153 0.0 1.0 0.00 0.00 0.00 25 1000.4
20260508071304 117 139 0.0 0.0 0.00 0.00 0.00 25 1000.3
20260508070304 117 146 0.0 0.0 0.00 0.00 0.00 25 1000.3
20260508065306 117 147 0.0 0.0 0.00 0.00 0.00 25 1000.2
20260508064303 117 151 0.0 1.0 0.00 0.00 0.00 25 1000.2
20260508063303 117 142 0.0 0.0 0.00 0.00 0.00 25 1000.2
20260508062306 117 158 0.0 0.0 0.00 0.00 0.00 25 1000.2
20260508061302 117 133 0.0 0.0 0.00 0.00 0.00 25 1000.1
20260508060302 117 133 0.0 0.0 0.00 0.00 0.00 25 1000.1
20260508055301 117 133 0.0 0.0 0.00 0.00 0.00 25 1000.1
20260508054301 117 132 0.0 0.0 0.00 0.00 0.00 25 999.9
20260508053301 117 137 0.0 0.0 0.00 0.00 0.00 25 999.8
20260508052301 117 137 0.0 0.0 0.00 0.00 0.00 25 999.8
20260508051301 117 137 0.0 0.0 0.00 0.00 0.00 25 999.7
20260508050301 117 144 0.0 0.0 0.00 0.00 0.00 25 999.5
20260508045300 117 145 0.0 0.0 0.00 0.00 0.00 25 999.5
20260508044300 117 102 0.0 0.0 0.00 0.00 0.00 25 999.5
20260508043259 117 112 0.0 1.0 0.00 0.00 0.00 25 999.4
20260508042259 117 111 0.0 0.0 0.00 0.00 0.00 25 999.4
20260508041259 117 101 1.0 1.0 0.00 0.00 0.00 25 999.5
20260508040257 117 136 0.0 0.0 0.00 0.00 0.00 25 999.7
20260508035257 117 136 0.0 0.0 0.02 0.00 0.00 25 999.8
20260508034257 117 138 0.0 0.0 0.02 0.00 0.00 25 999.9
20260508033256 117 350 2.0 2.0 0.02 0.00 0.00 25 1000.0
20260508032256 117 313 1.0 2.0 0.01 0.00 0.00 25 1000.0
20260508031255 117 147 0.0 0.0 0.00 0.00 0.00 25 999.8
20260508030255 117 133 0.0 0.0 0.00 0.00 0.00 25 999.8
20260508025255 117 133 0.0 0.0 0.00 0.00 0.00 25 999.8
20260508024255 117 133 0.0 0.0 0.00 0.00 0.00 25 999.8
20260508023254 117 129 0.0 0.0 0.00 0.00 0.00 25 999.9
20260508022254 117 130 0.0 0.0 0.00 0.00 0.00 25 999.9
20260508021254 117 130 0.0 0.0 0.00 0.00 0.00 25 1000.0
20260508020254 117 130 0.0 0.0 0.00 0.00 0.00 25 1000.2
20260508015254 117 130 0.0 0.0 0.00 0.00 0.00 25 1000.3
20260508014254 117 130 0.0 0.0 0.00 0.00 0.00 25 1000.4
20260508013254 117 130 0.0 0.0 0.00 0.00 0.00 25 1000.5
20260508012254 117 130 0.0 0.0 0.00 0.00 0.00 25 1000.7
20260508011253 117 112 0.0 0.0 0.00 0.00 0.00 25 1000.7
20260508010253 117 117 0.0 0.0 0.00 0.00 0.00 25 1000.7
20260508005253 117 113 0.0 0.0 0.00 0.00 0.00 25 1000.8
20260508004253 117 112 0.0 0.0 0.00 0.00 0.00 25 1001.0
20260508003252 117 133 0.0 0.0 0.00 0.00 0.00 25 1001.1
20260508002252 117 137 0.0 0.0 0.00 0.00 0.00 25 1001.1
20260508001251 117 152 0.0 0.0 0.00 0.00 0.00 25 1001.1
20260508000251 117 155 0.0 0.0 0.00 0.00 0.00 25 1001.2
20260507235251 117 158 0.0 0.0 0.00 0.00 0.00 25 1001.2
20260507234251 117 98 0.0 0.0 0.00 0.00 0.00 25 1001.2
20260507233250 117 131 0.0 0.0 0.00 0.00 0.00 25 1001.1
20260507232249 117 134 0.0 1.0 0.00 0.00 0.00 25 1001.1
20260507231248 117 136 0.0 0.0 0.00 0.00 0.00 25 1001.1
20260507230248 117 136 0.0 0.0 0.00 0.00 0.00 25 1001.2
20260507225247 117 90 0.0 0.0 0.00 0.00 0.00 25 1001.5
20260507224247 117 160 0.0 1.0 0.00 0.00 0.00 25 1001.6
20260507223247 117 159 0.0 0.0 0.00 0.00 0.00 25 1001.6
20260507222247 117 152 0.0 0.0 0.00 0.00 0.00 25 1001.7
20260507221247 117 138 0.0 0.0 0.00 0.00 0.00 25 1001.6
20260507220247 117 270 0.0 0.0 0.00 0.00 0.00 25 1001.6
20260507215247 117 266 1.0 1.0 0.00 0.00 0.00 25 1001.7
20260507214247 117 168 1.0 1.0 0.00 0.00 0.00 25 1001.7
20260507213246 117 261 1.0 1.0 0.00 0.00 0.00 25 1001.9
20260507212246 117 119 0.0 1.0 0.00 0.00 0.00 25 1001.9
20260507211246 117 122 0.0 1.0 0.00 0.00 0.00 25 1001.9
20260507210246 117 127 0.0 0.0 0.00 0.00 0.00 25 1002.0
20260507205246 117 294 1.0 2.0 0.00 0.00 0.00 25 1001.7
20260507204245 117 330 3.0 3.0 0.00 0.00 0.00 25 1002.1
20260507203245 117 259 1.0 2.0 0.00 0.00 0.00 25 1002.0
20260507202244 117 110 0.0 1.0 0.00 0.00 0.00 25 1001.9
20260507201244 117 93 2.0 2.0 0.00 0.00 0.00 25 1001.7
20260507200243 117 154 0.0 1.0 0.00 0.00 0.00 25 1001.7
20260507195243 117 8 2.0 2.0 0.00 0.00 0.00 25 1001.6
20260507194243 117 23 1.0 2.0 0.00 0.00 0.00 25 1001.6
20260507193242 117 141 1.0 1.0 0.00 0.00 0.00 25 1001.6
20260507192241 117 310 2.0 3.0 0.00 0.00 0.00 25 1001.5
20260507191241 117 355 2.0 3.0 0.00 0.00 0.00 25 1001.4
20260507190241 117 222 1.0 1.0 0.00 0.00 0.00 25 1001.4
20260507185241 117 340 2.0 4.0 0.00 0.00 0.00 25 1001.4
20260507184241 117 151 3.0 4.0 0.00 0.00 0.00 25 1001.3
20260507183241 117 360 3.0 4.0 0.00 0.00 0.00 25 1001.4
20260507182241 117 360 3.0 4.0 0.00 0.00 0.00 25 1001.4
20260507181241 117 199 2.0 2.0 0.00 0.00 0.00 25 1001.3
20260507180241 117 164 5.0 6.0 0.00 0.00 0.00 25 1001.3
20260507175240 117 352 3.0 4.0 0.00 0.00 0.00 25 1001.3
20260507174240 117 3 2.0 2.0 0.00 0.00 0.00 25 1001.2
20260507173240 117 261 2.0 4.0 0.00 0.00 0.00 25 1001.2
20260507172239 117 224 2.0 3.0 0.00 0.00 0.00 25 1001.3
20260507171239 117 90 5.0 6.0 0.00 0.00 0.00 25 1001.3
20260507170239 117 314 3.0 5.0 0.00 0.00 0.00 25 1001.2
20260507165239 117 241 2.0 4.0 0.00 0.00 0.00 25 1001.1
20260507164239 117 111 7.0 9.0 0.00 0.00 0.00 25 1001.1
20260507163238 117 359 3.0 5.0 0.00 0.00 0.00 25 1001.1
20260507162238 117 333 4.0 6.0 0.00 0.00 0.00 25 1001.0
20260507161237 117 252 4.0 6.0 0.00 0.00 0.00 25 1001.0
20260507160237 117 161 2.0 4.0 0.00 0.00 0.00 25 1001.0
20260507155237 117 360 3.0 4.0 0.00 0.00 0.00 25 1001.1
20260507154237 117 19 5.0 6.0 0.00 0.00 0.00 25 1001.0
20260507153236 117 69 1.0 3.0 0.00 0.00 0.00 25 1001.2
20260507152236 117 332 6.0 9.0 0.00 0.00 0.00 25 1001.3
20260507151236 117 192 4.0 6.0 0.00 0.00 0.00 25 1001.2
20260507150236 117 181 3.0 5.0 0.00 0.00 0.00 25 1001.3
20260507145235 117 245 4.0 5.0 0.00 0.00 0.00 25 1001.4
20260507144235 117 280 3.0 4.0 0.00 0.00 0.00 25 1001.4
20260507143235 117 270 5.0 9.0 0.00 0.00 0.00 25 1001.4
20260507142235 117 291 4.0 6.0 0.00 0.00 0.00 25 1001.6
20260507141234 117 214 5.0 7.0 0.00 0.00 0.00 25 1001.7
20260507140234 117 356 6.0 7.0 0.00 0.00 0.00 25 1001.7
20260507135234 117 360 1.0 2.0 0.00 0.00 0.00 25 1001.8
20260507134233 117 356 6.0 7.0 0.00 0.00 0.00 25 1001.7
20260507133233 117 161 4.0 5.0 0.00 0.00 0.00 25 1001.7